Weather History for Sarasota, FL

Change the Weather History Date:

Wednesday, December 19, 2012

  Actual Average Record
Temperature  
Mean Temperature 63 °F 63 °F  
Max Temperature 79 °F 73 °F 84 °F (1967)
Min Temperature 46 °F 53 °F 30 °F (1975)
Degree Days  
Heating Degree Days 2 4  
Month to date heating degree days 3 63  
Since 1 July heating degree days 44 96  
Cooling Degree Days 0 2  
Month to date cooling degree days 88 52  
Year to date cooling degree days 3812 3352  
Growing Degree Days 10 (Base 50)    
Moisture  
Dew Point 50 °F    
Average Humidity 85    
Maximum Humidity 100    
Minimum Humidity 31    
Precipitation  
Precipitation 0.00 in 0.10 in 0.40 in (1951)
Month to date precipitation 1.03 1.49  
Year to date precipitation 45.07 51.97  
Sea Level Pressure  
Sea Level Pressure 30.05 in    
Wind  
Wind Speed 2 mph (East)    
Max Wind Speed 10 mph    
Max Gust Speed 13 mph    
Visibility 6 miles    
Events Fog    
T = Trace of Precipitation, MM = Missing Value Source: NWS Daily Summary

Daily Weather History Graph

Daily Weather History Graph

Search for Another Location

Airport:

Trip Planner

Search our weather history database for the weather conditions in past years. The results will help you decide how hot, cold, wet, or windy it might be!

Date:

Astronomy

Dec. 19, 2012 Rise Set
Actual Time 7:15 AM EST 5:40 PM EST
Civil Twilight 6:49 AM EST 6:05 PM EST
Nautical Twilight 6:20 AM EST 6:34 PM EST
Astronomical Twilight 5:51 AM EST 7:03 PM EST
Moon 11:57 AM EST (12/19) No Moon Set
Length of Visible Light 11h 16m
Length of Day
10h 24m
Waxing Crescent, 45% of the Moon is Illuminated
Dec 19
Waxing Crescent
Dec 20
First Quarter
Dec 28
Full
Jan 4
Last Quarter
Jan 11
New

Hourly Weather History & Observations

Time (EST) Temp. Windchill Dew Point Humidity Pressure Visibility Wind Dir Wind Speed Gust Speed Precip Events Conditions
12:50 AM 51.8 °F - 51.8 °F 100% 30.04 in 1.0 mi Calm Calm - N/A   Mist
12:53 AM 52.0 °F - 52.0 °F 100% 30.04 in 0.5 mi Calm Calm - N/A Fog Fog
1:02 AM 53.6 °F - 53.6 °F 100% 30.04 in 3.0 mi Calm Calm - N/A   Mist
1:28 AM 53.6 °F - 51.8 °F 94% 30.03 in 0.8 mi Calm Calm - N/A   Mist
1:39 AM 53.6 °F - 53.6 °F 100% 30.03 in 2.5 mi Calm Calm - N/A   Mist
1:46 AM 51.8 °F - 51.8 °F 100% 30.04 in 5.0 mi SSE 3.5 mph - N/A   Mist
1:53 AM 51.1 °F - 50.0 °F 96% 30.04 in 7.0 mi Calm Calm - N/A   Unknown
2:53 AM 53.1 °F - 52.0 °F 96% 30.04 in 9.0 mi Calm Calm - N/A   Clear
3:25 AM 50.0 °F - 50.0 °F 100% 30.04 in 1.8 mi Calm Calm - N/A   Mist
3:38 AM 50.0 °F - 50.0 °F 100% 30.03 in 3.0 mi Calm Calm - N/A   Clear
3:44 AM 50.0 °F - 50.0 °F 100% 30.03 in 1.8 mi Calm Calm - N/A   Clear
3:53 AM 50.0 °F - 48.9 °F 96% 30.03 in 0.5 mi Calm Calm - N/A Fog Fog
4:08 AM 50.0 °F - 50.0 °F 100% 30.03 in 2.0 mi Calm Calm - N/A   Clear
4:16 AM 50.0 °F - 50.0 °F 100% 30.04 in 6.0 mi Calm Calm - N/A   Clear
4:40 AM 48.2 °F - 48.2 °F 100% 30.04 in 1.2 mi Calm Calm - N/A   Partly Cloudy
4:53 AM 48.9 °F - 48.9 °F 100% 30.03 in 0.2 mi Calm Calm - N/A Fog Fog
4:59 AM 48.2 °F - 48.2 °F 100% 30.03 in 1.2 mi Calm Calm - N/A   Partly Cloudy
5:04 AM 46.4 °F - 46.4 °F 100% 30.03 in 0.8 mi Calm Calm - N/A   Mist
5:15 AM 46.4 °F - 46.4 °F 100% 30.04 in 1.0 mi Calm Calm - N/A   Clear
5:17 AM 48.2 °F - 46.4 °F 93% 30.04 in 0.8 mi Calm Calm - N/A   Mist
5:28 AM 48.2 °F - 48.2 °F 100% 30.04 in 3.0 mi Calm Calm - N/A   Partly Cloudy
5:42 AM 46.4 °F 45.2 °F 46.4 °F 100% 30.05 in 1.2 mi East 3.5 mph - N/A   Partly Cloudy
5:45 AM 46.4 °F 45.2 °F 46.4 °F 100% 30.05 in 0.8 mi ENE 3.5 mph - N/A Fog Mist
5:53 AM 48.0 °F - 48.0 °F 100% 30.05 in 10.0 mi Calm Calm - N/A Fog Clear
6:53 AM 48.0 °F - 46.9 °F 96% 30.06 in 10.0 mi Calm Calm - N/A Fog Clear
7:53 AM 52.0 °F - 51.1 °F 97% 30.08 in 9.0 mi NE 3.5 mph - N/A   Clear
8:53 AM 57.9 °F - 54.0 °F 87% 30.10 in 10.0 mi East 5.8 mph - N/A   Clear
9:53 AM 64.0 °F - 53.1 °F 67% 30.11 in 10.0 mi East 6.9 mph - N/A   Clear
10:53 AM 69.1 °F - 52.0 °F 54% 30.11 in 10.0 mi East 8.1 mph - N/A   Clear
11:53 AM 73.0 °F - 45.0 °F 37% 30.09 in 10.0 mi East 8.1 mph - N/A   Clear
12:53 PM 75.9 °F - 43.0 °F 31% 30.07 in 10.0 mi NNE 4.6 mph - N/A   Clear
1:53 PM 75.0 °F - 48.0 °F 38% 30.05 in 10.0 mi WSW 5.8 mph - N/A   Clear
2:53 PM 75.0 °F - 51.1 °F 43% 30.03 in 10.0 mi West 3.5 mph - N/A   Clear
3:53 PM 75.9 °F - 53.1 °F 45% 30.03 in 10.0 mi West 3.5 mph - N/A   Clear
4:53 PM 75.9 °F - 43.0 °F 31% 30.04 in 10.0 mi East 5.8 mph - N/A   Clear
5:53 PM 69.1 °F - 55.9 °F 63% 30.04 in 10.0 mi Calm Calm - N/A   Clear
6:53 PM 64.9 °F - 55.9 °F 73% 30.05 in 10.0 mi Calm Calm - N/A   Clear
7:53 PM 60.1 °F - 53.1 °F 78% 30.06 in 10.0 mi Calm Calm - N/A   Clear
8:53 PM 57.9 °F - 53.1 °F 84% 30.06 in 10.0 mi Calm Calm - N/A   Clear
9:53 PM 55.9 °F - 52.0 °F 87% 30.07 in 10.0 mi Calm Calm - N/A   Clear
10:53 PM 55.0 °F - 52.0 °F 89% 30.07 in 10.0 mi Calm Calm - N/A   Clear
11:53 PM 54.0 °F - 52.0 °F 93% 30.06 in 10.0 mi Calm Calm - N/A   Clear